AMC-2 (GE-2)

导读 | 星芒AI

AMC-2(GE-2)是美国AMC卫星公司运营的一颗通信卫星,于2001年发射,位于105°W轨道位置。该卫星基于Space Systems/Loral的LS-1300平台建造,主要为北美地区提供C波段和Ku波段的广播和通信服务。AMC-2支持电视广播、企业网络和互联网服务,具有高功率和多波束能力,提升了通信效率和覆盖范围。作为早期高容量卫星之一,AMC-2在推动卫星通信技术发展中发挥了重要作用。

基本信息
目录编号:
24713
目录名称:
AMC-2 (GE-2)
国际标识:
1997-002A
轨道中心:
EARTH
卫星名称:
AMC-2 (GE-2)
卫星全名:
--
卫星状态:
在轨 (已飞行10502 天)
发射日期:
1997-01-30 UTC
国别 :
(SES)
星等 :
--
轨道信息
数据来源 国际轨道数据 AOE轨道数据
星历时间 2025-10-31T23:03:39+0800
12小时前
查看轨道信息
2025-10-30T22:00:00+0800
1天前
查看轨道信息
半长轴 42389.76km 42389.732km
偏心率 0.0007821 0.0007843
轨道倾角 10.343° 10.341°
近地点辐角 161.456° 160.727°
升交点赤经 47.202° 47.211°
平近点角 206.201° 192.978°
近地点 35978.471km 35978.35km
远地点 36044.779km 36044.844km
周期 1447.609分钟 1447.607分钟
每日圈数 0.994744 0.994745
详细信息
使用方式:
暂无
2D轨道图
3D轨道图
轨道高度分析图
轨道倾角分析图
轨道综合分析图
查看轨道综合分析图